Location: Newark
(27.9675°N, 86.8869°E)
Time: 18:27:40
(UTC+00:00)

Vanguard 3 - Pass Details

Date: 25 October 2019
Orbit: 508 x 3263 km, 33.3° (Epoch: 14 November)

Event Time Altitude Azimuth Distance (km) Brightness Sun altitude
Rises 19:40:30 0° 291° (WNW) 2,619 - -61.1°
Reaches altitude 10° 19:42:37 10° 295° (WNW) 1,712 - -60.6°
Maximum altitude 19:46:13 59° 16° (NNE) 629 - -59.9°
Drops below altitude 10° 19:50:40 10° 96° (E) 2,100 - -59.0°
Sets 19:53:32 0° 100° (E) 3,301 - -58.5°
